Showing default

AAC-HSI-SAT2, 56995

Orbit data source: Space-Track

AAC-HSI-SAT2, 56995 is a UK payload satellite in SSO that was launched on Mon, 12 Jun 2023 UTC via an FALCON 9 launch vehicle from the Air Force Western Test Range (AFWTR). Payload-class satellites include a variety of spacecraft equipped with specific instruments for various scientific and technological missions. These include communications satellites like Starlink; space stations such as the ISS; scientific satellites like the Hubble; Earth observation satellites from companies like Planet Labs, Umbra, and HawkEye 360; GPS; miniature CubeSats for education and research; and military/defense satellites.

Loading next visibility...
Identifier
56995, 2023-084BX
Orbit
SSO
Country
Flag of UKUK
Related business
Manufacturer
AAC ClydeSpace
Mission
Operational Commercial Imaging
Bus & Motor
CUBESAT 6U, Unknown motor
Mass
10 kg wet, ~10 kg dry
Launch date (UTC)
2023-06-12 (3 years ago)
Launch vehicle
FALCON 9
Launch site
Air Force Western Test Range (AFWTR)
Object type
Payload
Rocket body
Debris
Shape & HBR
Box + 2 Pan, 1.0 m
Radar Cross Section
0.092 m², Medium (>0.1 m² and < 1m²)

Expand to show TLE details & history
Last TLE update: 7 hours ago

TLE from 7 hours ago
0 AAC-HSI-SAT2
1 56995U 23084BX  26207.23643501  .00003566  00000-0  16535-3 0  9995
2 56995  97.8293 358.9646 0013265  55.2069 305.0412 15.20694164172271
Epoch: 2026-07-26T05:40Z
TLE epoch observation values (Epoch: 2026-07-26T05:40:27.984Z)
Latitude
-0°
Longitude
-30.08926°
Altitude
501.59 km
Speed
7.616 km/s
True Right ascension
23h 55m 51s
True Declination
0° 00' 00"
Sunlit
Object was in full shadow at epoch
Visualization orbit readout
Latitude
Unknown
Longitude
Unknown
Altitude
Unknown
Speed
Unknown
Apparent Right ascension
Unknown
Apparent Declination
Unknown
Sunlit
N/A
Visualization observer readout
Local Sidereal Time
01:54:50
Azimuth
Unknown
Elevation
Unknown
Doppler factor
Unknown
Orbital elements
Apogee altitude
509.854 km
Perigee altitude
491.604 km
Semi-major axis
6,878.866 km
Eccentricity
0.00133
Inclination
97.8293°
RAAN
358.9646°
Arg. of periapsis
55.2069°
True anomaly
304.91663°
Mean anomaly
305.0412°
Eccentric anomaly
304.97893°
Mean motion
3.80424 °/min
Orbital period
94.63 mins
BSTAR
0.00016535
Loading maneuver chart data...
Computing Atmospheric mass density...
Loading historical data...
Loading historical data...
Loading historical data...
Loading historical data...
Loading historical data...
Loading historical data...
Loading historical data...

Documentation

Showing up to 5 results
|